LES 1

operational
NORAD ID: 1002 Int'l Des: 1965-008 Owner: AFSSD Country: US
MEOCIRCULAR

About LES 1

Description loading...

Live Position

Loading 3D Globe...

Upcoming Passes

Altitude History

Altitude vs Time

uPlot chart will show altitude changes over time

Two-Line Element Set

1 01002U 65008C 26063.01653134 .00000017 00000-0 11894-2 0 9995
2 01002 32.1447 293.8653 0015807 251.5177 108.3602 9.88354910205780
Epoch: Mar 4, 2026 • Age: 19 hours

Current Status

Altitude 2788.2 km
Velocity 6.60 km/s
Sub-Earth Point -32.25°S, 112.49°E
Type other

Large Constellations

Loading constellations...